This is the latest recevied weather packets stored in our database for station/object ALAKES. If no packets are shown the sender has not sent any weather packets the latest 10 day(s).
| Time | Temp. | Humidity | Pressure | Rain* | Wind** | Luminosity | Snow |
|---|---|---|---|---|---|---|---|
| 1787946094 | 16.67° C | 33% | - | 0 mm | - | - | - |
| 1787945456 | 16.11° C | 35% | - | 0 mm | - | - | - |
| 1787944849 | 15.56° C | 37% | - | 0 mm | - | - | - |
| 1787944814 | 15.56° C | 37% | - | 0 mm | - | - | - |
| 1787944182 | 15.56° C | 36% | - | 0 mm | - | - | - |
| 1787943540 | 15.56° C | 36% | - | 0 mm | - | - | - |
| 1787942936 | 15.56° C | 35% | - | 0 mm | - | - | - |
| 1787942904 | 15.56° C | 35% | - | 0 mm | - | - | - |
| 1787942278 | 15° C | 36% | - | 0 mm | - | - | - |
| 1787941646 | 13.89° C | 38% | - | 0 mm | - | - | - |
| 1787941024 | 13.89° C | 37% | - | 0 mm | - | - | - |
| 1787940399 | 13.89° C | 38% | - | 0 mm | - | - | - |
| 1787939768 | 14.44° C | 36% | - | 0 mm | - | - | - |
| 1787939135 | 14.44° C | 37% | - | 0 mm | - | - | - |
| 1787938503 | 13.89° C | 36% | - | 0 mm | - | - | - |
| 1787937869 | 13.89° C | 33% | - | 0 mm | - | - | - |
| 1787937225 | 13.89° C | 34% | - | 0 mm | - | - | - |
| 1787936589 | 13.33° C | 34% | - | 0 mm | - | - | - |
| 1787935951 | 13.33° C | 34% | - | 0 mm | - | - | - |
| 1787935321 | 13.33° C | 33% | - | 0 mm | - | - | - |
| 1787934691 | 13.33° C | 34% | - | 0 mm | - | - | - |
| 1787934057 | 12.78° C | 28% | - | 0 mm | - | - | - |
| 1787933429 | 12.78° C | 27% | - | 0 mm | - | - | - |
| 1787932795 | 12.22° C | 27% | - | 0 mm | - | - | - |
| 1787932147 | 12.22° C | 26% | - | 0 mm | - | - | - |
* Rain latest 24 hours (hover to see other rain measurements)
** Current wind speed in m/s (hover to see current wind gust speed)